{"data":{"norad_id":66342,"intl_designator":"2025-253Z","name":"STARLINK-35535","alt_names":[],"object_type":"PAYLOAD","status":"ACTIVE","operator":null,"country":"US","launch_date":"2025-11-06","launch_site_code":"AFETR","launch_vehicle":null,"mission":null,"orbit_class":"UNKNOWN","rcs_meters":null,"size_class":null,"mass_kg":null,"dimensions":null,"purposes":["comms"],"wikipedia_slug":null,"has_3d_model":false,"image_url":null,"decayed_at":null,"tle_current":{"epoch":"2026-05-24T23:55:21.163008Z","epoch_age_seconds":85800,"freshness":"FRESH","line1":"1 66342U 25253Z   26144.99677272  .00013033  00000+0  48188-3 0  9995","line2":"2 66342  42.9982 141.6510 0000669 279.7565  80.3211 15.27608805 31918","mean_motion":15.27608805,"eccentricity":6.69e-5,"inclination_deg":42.9982,"raan_deg":141.651,"arg_perigee_deg":279.7565,"mean_anomaly_deg":80.3211,"bstar":0.00048188,"rev_number":3191,"period_min":94.264971194638,"perigee_km":482.50383728282,"apogee_km":483.42185244207,"semimajor_km":6861.0998448624,"source":"CELESTRAK","updated_at":"2026-05-25T13:38:21.171752Z"}}}